QPF
0.00 0.00 0.00 0.00 0.00 0.00 0.00 0.00 0.00 0.00 0.00 0.00 0.00 0.00 0.00 0.00 0.00 0.00 0.01 0.07 0.15 0.04 0.00 0.02 0.01 0.05 0.04 0.01 0.00 0.00 0.00 0.00 0.00 0.00 0.00 0.00 0.00 0.00 0.00 0.00 0.00 0.00 0.00
0.00 0.00 0.00 0.00 0.00 0.00 0.00 0.00 0.00 0.00 0.00 0.00 0.00 0.00 0.00 0.00 0.03 0.19 0.28 0.21 0.19 0.01 0.00 0.00 0.01 0.02 0.00 0.00 0.00 0.00 0.00 0.00 0.00 0.00 0.00 0.00 0.00 0.00 0.00 0.00 0.00 0.00 0.00
0.00 0.00 0.00 0.00 0.00 0.00 0.00 0.00 0.00 0.00 0.00 0.00 0.00 0.00 0.00 0.03 0.31 1.17 1.00 0.24 0.23 0.07 0.00 0.00 0.00 0.00 0.00 0.00 0.00 0.00 0.00 0.00 0.00 0.00 0.00 0.00 0.00 0.00 0.00 0.00 0.00 0.00 0.00
0.00 0.00 0.00 0.00 0.00 0.00 0.00 0.00 0.00 0.00 0.00 0.00 0.00 0.00 0.00 0.15 1.13 1.37 0.34 0.21 0.19 0.02 0.00 0.00 0.01 0.00 0.00 0.00 0.00 0.00 0.00 0.00 0.00 0.00 0.00 0.00 0.00 0.00 0.00 0.00 0.00 0.00 0.00
0.00 0.00 0.00 0.00 0.00 0.00 0.00 0.00 0.00 0.00 0.00 0.00 0.00 0.00 0.06 0.32 0.68 0.29 0.19 0.16 0.02 0.00 0.00 0.00 0.00 0.00 0.00 0.00 0.00 0.00 0.00 0.00 0.00 0.00 0.00 0.00 0.00 0.00 0.00 0.00 0.00 0.00 0.00
0.00 0.00 0.00 0.00 0.00 0.00 0.00 0.00 0.00 0.00 0.00 0.00 0.00 0.00 0.08 0.05 0.16 0.09 0.05 0.02 0.00 0.00 0.00 0.00 0.00 0.00 0.00 0.00 0.00 0.00 0.00 0.00 0.00 0.00 0.00 0.00 0.00 0.00 0.00 0.00 0.00 0.00 0.01
0.00 0.00 0.00 0.00 0.00 0.00 0.00 0.00 0.00 0.00 0.00 0.00 0.00 0.01 0.11 0.07 0.06 0.05 0.04 0.00 0.00 0.00 0.00 0.00 0.00 0.00 0.00 0.00 0.00 0.00 0.00 0.00 0.00 0.00 0.00 0.00 0.00 0.00 0.00 0.00 0.00 0.02 0.08
0.00 0.00 0.00 0.00 0.00 0.00 0.00 0.00 0.00 0.00 0.00 0.00 0.01 0.02 0.01 0.05 0.06 0.04 0.00 0.00 0.00 0.00 0.00 0.00 0.00 0.00 0.00 0.00 0.00 0.00 0.00 0.00 0.00 0.00 0.00 0.00 0.00 0.00 0.00 0.00 0.00 0.02 0.09
0.00 0.00 0.00 0.00 0.00 0.00 0.00 0.00 0.00 0.00 0.00 0.00 0.00 0.01 0.01 0.02 0.02 0.00 0.00 0.00 0.00 0.00 0.00 0.00 0.00 0.00 0.00 0.00 0.00 0.00 0.00 0.00 0.00 0.00 0.00 0.00 0.00 0.00 0.00 0.00 0.00 0.00 0.02
0.00 0.00 0.00 0.00 0.00 0.00 0.00 0.00 0.00 0.00 0.00 0.01 0.00 0.00 0.02 0.04 0.00 0.00 0.00 0.00 0.00 0.00 0.00 0.00 0.00 0.00 0.00 0.00 0.00 0.00 0.00 0.00 0.00 0.00 0.00 0.00 0.00 0.00 0.00 0.00 0.00 0.00 0.00
0.00 0.00 0.00 0.00 0.00 0.00 0.00 0.00 0.01 0.00 0.00 0.00 0.00 0.01 0.03 0.02 0.00 0.00 0.00 0.00 0.00 0.00 0.00 0.00 0.00 0.00 0.00 0.00 0.00 0.00 0.00 0.00 0.00 0.00 0.00 0.00 0.00 0.00 0.00 0.00 0.00 0.00 0.00
0.00 0.00 0.00 0.00 0.00 0.00 0.00 0.01 0.00 0.00 0.00 0.00 0.03 0.03 0.00 0.00 0.00 0.00 0.00 0.00 0.00 0.00 0.00 0.00 0.00 0.00 0.00 0.00 0.00 0.00 0.00 0.00 0.00 0.00 0.00 0.00 0.00 0.00 0.00 0.00 0.00 0.00 0.00
0.00 0.00 0.00 0.00 0.00 0.00 0.00 0.00 0.00 0.00 0.01 0.01 0.01 0.00 0.00 0.00 0.00 0.00 0.00 0.00 0.00 0.00 0.00 0.00 0.00 0.00 0.00 0.00 0.00 0.00 0.00 0.00 0.00 0.00 0.00 0.00 0.00 0.00 0.00 0.00 0.00 0.00 0.00
0.00 0.00 0.00 0.00 0.00 0.00 0.00 0.00 0.00 0.01 0.01 0.00 0.00 0.00 0.00 0.00 0.00 0.00 0.00 0.00 0.00 0.00 0.00 0.00 0.00 0.00 0.00 0.00 0.00 0.00 0.00 0.00 0.00 0.00 0.00 0.00 0.00 0.00 0.00 0.00 0.00 0.00 0.00
0.00 0.00 0.00 0.00 0.00 0.00 0.00 0.00 0.00 0.00 0.00 0.00 0.00 0.00 0.00 0.00 0.00 0.00 0.00 0.00 0.00 0.00 0.00 0.00 0.00 0.00 0.00 0.00 0.00 0.00 0.00 0.00 0.00 0.00 0.00 0.00 0.00 0.00 0.00 0.00 0.00 0.00 0.00
0.00 0.00 0.00 0.00 0.00 0.00 0.00 0.00 0.00 0.00 0.00 0.00 0.00 0.00 0.00 0.00 0.00 0.00 0.00 0.00 0.00 0.00 0.00 0.00 0.00 0.00 0.00 0.00 0.00 0.00 0.00 0.00 0.00 0.00 0.00 0.00 0.00 0.00 0.00 0.00 0.00 0.00 0.00
0.00 0.00 0.00 0.00 0.00 0.00 0.00 0.00 0.00 0.00 0.00 0.00 0.00 0.00 0.00 0.00 0.00 0.00 0.00 0.00 0.00 0.00 0.00 0.00 0.00 0.00 0.00 0.00 0.00 0.00 0.00 0.00 0.00 0.00 0.00 0.00 0.00 0.00 0.00 0.00 0.00 0.00 0.00
0.00 0.00 0.00 0.00 0.00 0.00 0.00 0.00 0.00 0.00 0.00 0.00 0.00 0.00 0.00 0.00 0.00 0.00 0.00 0.00 0.00 0.00 0.00 0.00 0.00 0.00 0.00 0.00 0.00 0.00 0.00 0.00 0.00 0.00 0.00 0.00 0.00 0.00 0.00 0.00 0.00 0.00 0.00
0.00 0.00 0.00 0.00 0.00 0.00 0.00 0.00 0.00 0.00 0.00 0.00 0.00 0.00 0.00 0.00 0.00 0.00 0.00 0.00 0.00 0.00 0.00 0.00 0.00 0.00 0.00 0.00 0.00 0.00 0.00 0.00 0.00 0.00 0.00 0.00 0.00 0.00 0.00 0.00 0.00 0.00 0.00
0.00 0.00 0.00 0.00 0.00 0.00 0.00 0.00 0.00 0.00 0.00 0.00 0.00 0.00 0.00 0.00 0.00 0.00 0.00 0.00 0.00 0.00 0.00 0.00 0.00 0.00 0.00 0.00 0.00 0.00 0.00 0.00 0.00 0.00 0.00 0.00 0.00 0.00 0.00 0.00 0.00 0.00 0.00
0.00 0.00 0.00 0.00 0.00 0.00 0.00 0.00 0.00 0.00 0.00 0.00 0.00 0.00 0.00 0.00 0.00 0.00 0.00 0.00 0.00 0.00 0.00 0.00 0.00 0.00 0.00 0.00 0.00 0.00 0.00 0.00 0.00 0.00 0.00 0.00 0.00 0.00 0.00 0.00 0.00 0.00 0.00
0.00 0.00 0.00 0.00 0.00 0.00 0.00 0.00 0.00 0.00 0.00 0.00 0.00 0.00 0.00 0.00 0.00 0.00 0.00 0.00 0.00 0.00 0.00 0.00 0.00 0.00 0.00 0.00 0.00 0.00 0.00 0.00 0.00 0.00 0.00 0.00 0.00 0.00 0.00 0.00 0.00 0.00 0.00
0.00 0.00 0.00 0.00 0.00 0.00 0.00 0.00 0.00 0.00 0.00 0.00 0.00 0.00 0.00 0.00 0.00 0.00 0.00 0.00 0.00 0.00 0.00 0.00 0.00 0.00 0.00 0.00 0.00 0.00 0.00 0.00 0.00 0.00 0.00 0.00 0.00 0.00 0.00 0.00 0.00 0.00 0.00
0.00 0.00 0.00 0.00 0.00 0.00 0.00 0.00 0.00 0.00 0.00 0.00 0.00 0.00 0.00 0.00 0.00 0.00 0.00 0.00 0.00 0.00 0.00 0.00 0.00 0.00 0.00 0.00 0.00 0.00 0.00 0.00 0.00 0.00 0.00 0.00 0.00 0.00 0.00 0.00 0.00 0.00 0.00
0.00 0.00 0.00 0.00 0.00 0.00 0.00 0.00 0.00 0.00 0.00 0.00 0.00 0.00 0.00 0.00 0.00 0.00 0.00 0.00 0.00 0.00 0.00 0.00 0.00 0.00 0.00 0.00 0.00 0.00 0.00 0.00 0.00 0.00 0.00 0.00 0.00 0.00 0.00 0.00 0.00 0.00 0.00
0.00 0.00 0.00 0.00 0.00 0.00 0.00 0.00 0.00 0.00 0.00 0.00 0.00 0.00 0.00 0.00 0.00 0.00 0.00 0.00 0.00 0.00 0.00 0.00 0.00 0.00 0.00 0.00 0.00 0.00 0.00 0.00 0.00 0.00 0.00 0.00 0.00 0.00 0.00 0.00 0.00 0.00 0.00
MSLP
1008.15 1008.65 1009.21 1009.61 1010.10 1010.52 1010.75 1010.90 1011.17 1011.77 1012.49 1012.87 1013.08 1013.56 1013.65 1014.09 1014.83 1016.13 1016.50 1016.51 1016.62 1016.38 1016.30 1016.29 1016.51 1016.63 1016.56 1016.70 1016.51 1016.68 1016.58 1016.60 1015.96 1015.29 1015.60 1015.60 1015.80 1015.37 1014.67 1014.08 1013.23 1012.40 1011.31
1007.10 1007.89 1008.35 1008.93 1009.31 1009.37 1009.49 1009.75 1010.17 1010.67 1011.49 1012.11 1012.43 1012.85 1013.40 1014.15 1015.86 1017.02 1017.18 1016.51 1016.03 1016.52 1016.09 1015.85 1016.22 1016.61 1016.47 1016.87 1016.56 1016.53 1016.41 1016.66 1016.56 1015.88 1015.82 1015.58 1015.46 1015.21 1014.54 1013.81 1012.79 1011.86 1011.08
1006.53 1007.12 1007.73 1007.97 1008.05 1008.10 1008.57 1009.04 1009.41 1009.89 1010.66 1011.47 1011.86 1012.20 1012.86 1013.97 1014.63 1013.37 1013.75 1015.00 1015.80 1016.12 1015.46 1015.36 1016.10 1016.29 1016.15 1016.54 1016.06 1015.87 1016.17 1016.58 1016.72 1016.50 1015.89 1015.45 1015.13 1014.66 1013.92 1013.13 1012.20 1011.03 1010.04
1005.79 1006.26 1006.53 1006.69 1006.95 1007.39 1007.80 1008.22 1008.70 1009.42 1010.16 1010.79 1011.00 1011.39 1012.34 1012.93 1013.23 1013.45 1014.16 1015.13 1015.27 1015.32 1014.87 1015.55 1016.13 1015.86 1016.06 1016.36 1015.91 1016.24 1016.54 1016.69 1016.62 1016.40 1015.92 1015.49 1015.00 1014.25 1013.69 1012.60 1011.34 1010.48 1009.53
1004.81 1005.17 1005.25 1005.86 1006.35 1006.79 1007.42 1007.92 1008.34 1008.92 1009.57 1010.11 1010.42 1010.87 1011.43 1012.29 1012.70 1013.34 1013.83 1014.41 1014.67 1014.47 1015.00 1015.71 1015.71 1016.09 1016.59 1016.42 1016.25 1016.69 1017.03 1016.97 1016.87 1016.54 1016.00 1015.47 1014.84 1014.39 1013.70 1012.88 1011.97 1010.56 1009.75
1003.97 1004.25 1005.03 1005.51 1006.03 1006.54 1006.99 1007.43 1007.89 1008.40 1009.11 1009.72 1010.09 1010.42 1010.91 1011.53 1012.25 1012.83 1013.19 1013.64 1014.12 1014.67 1015.50 1015.80 1016.16 1016.51 1016.76 1016.95 1017.09 1017.23 1017.39 1017.43 1017.34 1016.98 1016.21 1015.83 1015.36 1015.01 1014.08 1013.39 1012.35 1011.22 1010.16
1003.27 1003.77 1004.47 1005.12 1005.73 1006.19 1006.68 1007.04 1007.41 1007.95 1008.53 1009.13 1009.73 1010.53 1010.83 1011.18 1011.93 1012.80 1013.10 1013.61 1014.37 1014.84 1015.53 1015.83 1016.08 1016.70 1016.95 1017.06 1017.32 1017.47 1017.51 1017.70 1017.71 1017.39 1016.83 1016.39 1015.98 1015.30 1014.71 1013.69 1012.61 1012.07 1011.17
1002.73 1003.44 1004.15 1004.72 1005.30 1005.83 1006.24 1006.65 1007.10 1007.68 1008.28 1009.03 1009.98 1010.44 1010.84 1011.70 1012.35 1013.07 1013.33 1013.96 1014.64 1015.09 1015.58 1015.94 1016.48 1017.03 1017.26 1017.30 1017.41 1017.46 1017.42 1017.37 1017.37 1017.15 1016.81 1016.53 1016.34 1015.74 1015.11 1014.26 1013.17 1011.83 1010.95
1002.40 1003.08 1003.67 1004.29 1004.92 1005.59 1006.12 1006.59 1006.94 1007.42 1008.21 1009.15 1009.83 1010.40 1011.31 1012.29 1012.54 1013.16 1013.58 1014.17 1014.87 1015.53 1016.11 1016.53 1016.90 1017.25 1017.61 1017.84 1017.78 1017.66 1017.48 1017.33 1017.06 1016.95 1016.77 1016.47 1016.23 1015.79 1015.33 1014.16 1013.02 1012.06 1011.25
1002.05 1002.77 1003.45 1003.96 1004.64 1005.37 1005.99 1006.55 1007.01 1007.61 1008.41 1009.35 1010.21 1010.93 1011.82 1012.35 1013.13 1013.59 1014.02 1014.48 1015.19 1016.00 1016.61 1017.08 1017.42 1017.67 1018.11 1018.37 1018.22 1018.03 1017.73 1017.61 1017.19 1016.70 1016.09 1015.64 1015.39 1015.18 1015.00 1014.61 1013.90 1013.21 1012.47
1002.21 1002.85 1003.35 1004.13 1004.83 1005.47 1006.25 1007.02 1007.71 1008.33 1008.97 1009.86 1010.71 1011.45 1012.09 1013.00 1013.83 1014.11 1014.47 1014.75 1015.27 1015.66 1016.23 1016.97 1017.77 1018.25 1018.61 1018.77 1018.64 1018.37 1018.27 1017.88 1017.12 1016.37 1015.89 1015.51 1015.31 1015.12 1014.89 1014.83 1014.55 1014.01 1013.42
1002.41 1002.73 1003.84 1004.65 1005.20 1005.96 1006.77 1007.65 1008.37 1008.96 1009.60 1010.41 1011.11 1012.04 1013.04 1013.47 1014.26 1014.73 1014.84 1014.98 1015.42 1015.65 1016.33 1017.20 1018.25 1018.74 1018.91 1019.01 1018.82 1018.57 1018.13 1017.36 1016.82 1016.33 1016.03 1015.71 1015.54 1015.49 1015.45 1015.25 1015.17 1014.83 1014.43
1002.17 1003.45 1004.38 1005.09 1005.73 1006.52 1007.30 1008.19 1008.93 1009.48 1010.17 1011.01 1011.34 1012.28 1013.33 1013.88 1014.77 1015.20 1015.43 1015.71 1016.08 1016.32 1016.87 1017.73 1018.54 1018.96 1018.99 1018.90 1018.86 1018.65 1017.99 1017.48 1017.01 1016.51 1016.38 1016.21 1016.15 1015.98 1015.59 1015.26 1015.13 1014.75 1014.82
1002.99 1004.05 1004.95 1005.66 1006.53 1007.32 1007.96 1008.85 1009.36 1009.81 1010.57 1011.06 1011.86 1012.69 1013.31 1014.15 1014.91 1015.59 1016.03 1016.43 1016.62 1016.95 1017.67 1018.32 1018.74 1018.89 1019.00 1018.93 1018.45 1018.35 1018.16 1018.15 1017.79 1017.27 1016.79 1016.58 1016.40 1016.08 1015.79 1015.61 1015.30 1014.90 1014.80
1003.85 1004.83 1005.74 1006.63 1007.36 1008.28 1009.18 1009.97 1009.92 1010.03 1010.33 1010.69 1011.54 1012.19 1013.02 1014.04 1014.81 1015.27 1015.68 1016.16 1016.55 1017.18 1017.84 1018.29 1018.33 1018.37 1018.25 1018.35 1018.45 1018.50 1018.31 1018.05 1018.02 1017.77 1017.23 1016.81 1016.66 1016.45 1016.32 1016.12 1015.73 1015.52 1015.44
1004.48 1005.51 1006.26 1006.90 1007.80 1008.68 1009.47 1010.47 1011.13 1011.08 1011.12 1011.52 1012.01 1012.29 1013.58 1014.05 1015.00 1015.81 1016.34 1016.63 1017.07 1017.55 1017.53 1017.71 1018.00 1018.21 1018.27 1018.30 1018.47 1018.58 1018.68 1018.53 1018.49 1018.08 1017.70 1017.43 1017.11 1016.98 1016.76 1016.56 1016.36 1016.21 1016.28
1004.56 1005.80 1006.59 1007.00 1007.72 1008.29 1009.01 1009.66 1011.00 1012.48 1012.45 1012.88 1013.24 1013.64 1014.10 1014.79 1015.62 1016.31 1016.76 1017.23 1017.62 1017.58 1017.45 1017.79 1018.04 1018.28 1018.52 1018.61 1018.83 1018.74 1018.99 1019.20 1019.14 1018.57 1018.18 1017.93 1017.59 1017.34 1017.19 1017.07 1016.93 1016.89 1017.04
1005.07 1005.75 1006.27 1006.99 1007.55 1007.93 1008.36 1009.27 1010.20 1011.08 1012.13 1013.42 1014.39 1014.61 1014.97 1015.60 1016.18 1016.66 1017.26 1017.69 1017.73 1017.67 1017.64 1017.99 1018.23 1018.55 1018.71 1018.74 1018.90 1018.91 1019.10 1019.01 1018.89 1018.90 1018.64 1018.33 1018.10 1017.75 1017.65 1017.64 1017.63 1017.65 1017.76
1005.32 1005.93 1006.38 1007.05 1007.35 1007.73 1008.40 1009.10 1009.82 1010.85 1011.90 1013.23 1014.54 1015.61 1016.32 1016.48 1016.85 1017.18 1017.30 1016.82 1017.15 1017.52 1017.83 1018.14 1018.50 1018.75 1018.86 1019.19 1019.33 1019.63 1019.49 1019.55 1019.40 1019.02 1018.96 1018.78 1018.58 1018.19 1018.18 1018.27 1018.60 1018.59 1018.49
1005.46 1005.94 1006.28 1007.00 1007.74 1008.17 1008.71 1009.33 1010.05 1011.03 1012.31 1013.02 1013.62 1014.76 1016.20 1016.63 1016.82 1017.09 1017.14 1017.04 1017.14 1017.43 1017.99 1018.47 1018.87 1018.93 1019.06 1019.55 1019.83 1019.94 1019.86 1019.78 1019.72 1019.42 1019.28 1019.20 1019.01 1018.75 1018.56 1018.62 1018.73 1018.95 1019.17
1005.43 1006.37 1006.58 1007.21 1007.81 1008.41 1009.00 1009.57 1010.35 1011.06 1011.81 1012.57 1013.41 1014.37 1014.91 1015.08 1015.75 1016.39 1016.67 1017.05 1017.34 1017.74 1018.15 1018.57 1018.91 1019.31 1019.62 1019.84 1019.90 1020.01 1019.95 1019.91 1019.86 1019.82 1019.61 1019.52 1019.41 1019.18 1019.25 1019.29 1019.35 1019.55 1019.70
1005.26 1006.16 1006.75 1007.17 1007.90 1008.61 1009.19 1009.88 1010.49 1011.01 1011.64 1012.40 1013.37 1014.75 1015.32 1014.85 1015.45 1015.96 1016.53 1017.14 1017.73 1018.04 1018.39 1018.80 1019.06 1019.21 1019.47 1019.76 1020.00 1020.03 1020.05 1020.17 1020.32 1020.18 1020.01 1019.79 1019.72 1019.69 1019.63 1019.60 1019.77 1019.97 1020.10
1005.11 1005.87 1006.55 1007.27 1007.79 1008.63 1009.34 1009.93 1010.45 1010.98 1011.61 1012.40 1013.19 1014.12 1014.64 1014.86 1015.46 1015.89 1016.47 1017.13 1017.81 1018.23 1018.74 1018.96 1019.25 1019.55 1019.97 1020.34 1020.32 1020.23 1020.14 1020.44 1020.68 1020.72 1020.37 1020.05 1020.03 1020.05 1020.04 1020.03 1020.19 1020.40 1020.70
1004.91 1005.63 1006.34 1007.01 1007.84 1008.33 1008.93 1009.51 1010.12 1010.78 1011.39 1012.22 1012.99 1013.66 1014.09 1014.77 1015.35 1015.95 1016.48 1017.31 1017.83 1018.32 1018.76 1019.03 1019.19 1019.47 1020.05 1020.21 1020.55 1020.68 1020.77 1021.09 1021.13 1021.03 1020.95 1020.38 1020.45 1020.54 1020.57 1020.63 1020.77 1021.18 1021.60
1004.61 1005.31 1006.08 1006.95 1007.83 1008.25 1009.02 1009.45 1010.01 1010.53 1011.19 1011.80 1012.55 1013.21 1013.90 1014.59 1015.27 1016.01 1016.73 1017.34 1017.71 1018.24 1018.94 1019.23 1019.52 1019.99 1020.22 1020.33 1020.51 1020.74 1021.66 1022.01 1021.68 1021.94 1021.03 1020.85 1020.83 1020.95 1021.02 1021.21 1021.47 1021.70 1021.98
1004.57 1005.19 1005.79 1006.63 1007.39 1008.03 1008.73 1009.24 1009.73 1010.29 1010.90 1011.50 1012.16 1012.85 1013.52 1014.29 1014.99 1015.77 1016.48 1016.98 1017.41 1018.11 1018.87 1019.39 1019.73 1019.91 1020.33 1020.51 1020.87 1021.75 1021.91 1022.02 1021.94 1022.05 1021.30 1021.06 1021.05 1021.21 1021.44 1021.75 1022.04 1022.22 1022.47
Thickness
5852 5850 5847 5844 5841 5838 5835 5833 5830 5823 5814 5808 5805 5799 5797 5788 5778 5759 5748 5744 5732 5740 5736 5731 5719 5710 5704 5695 5689 5680 5672 5663 5657 5656 5647 5639 5629 5627 5625 5620 5620 5618 5620
5860 5855 5852 5849 5846 5845 5842 5840 5836 5828 5820 5812 5807 5802 5793 5779 5757 5732 5731 5738 5726 5731 5731 5728 5714 5703 5699 5687 5682 5673 5666 5656 5646 5640 5634 5630 5624 5619 5616 5614 5614 5611 5608
5864 5860 5855 5853 5853 5852 5849 5845 5841 5834 5825 5815 5808 5803 5791 5775 5760 5744 5757 5745 5738 5729 5732 5725 5708 5699 5694 5683 5682 5674 5663 5649 5637 5629 5626 5625 5621 5618 5615 5614 5611 5612 5606
5870 5865 5862 5860 5858 5854 5851 5847 5842 5835 5826 5817 5813 5808 5794 5784 5773 5761 5755 5744 5738 5731 5731 5715 5702 5700 5691 5681 5678 5666 5652 5640 5632 5625 5621 5617 5614 5614 5611 5611 5613 5609 5606
5875 5872 5871 5867 5862 5858 5852 5847 5843 5835 5827 5818 5813 5807 5800 5787 5780 5765 5754 5744 5737 5733 5720 5708 5705 5693 5680 5677 5670 5655 5641 5632 5624 5618 5615 5612 5610 5606 5605 5603 5598 5603 5600
5880 5877 5873 5868 5863 5857 5852 5847 5841 5834 5824 5816 5811 5805 5798 5790 5778 5768 5760 5750 5739 5726 5709 5703 5693 5685 5675 5666 5655 5643 5634 5624 5616 5611 5610 5605 5603 5599 5599 5593 5588 5588 5592
5883 5881 5875 5870 5862 5857 5851 5845 5839 5832 5825 5815 5808 5799 5794 5788 5776 5762 5755 5745 5730 5722 5709 5700 5692 5680 5670 5660 5647 5637 5628 5618 5609 5605 5602 5600 5597 5596 5593 5591 5586 5580 5584
5883 5879 5874 5868 5861 5855 5849 5842 5837 5830 5821 5811 5800 5794 5789 5780 5768 5757 5751 5740 5728 5718 5707 5697 5685 5672 5661 5652 5643 5632 5624 5617 5610 5606 5602 5598 5594 5591 5587 5583 5579 5582 5586
5881 5876 5872 5865 5857 5850 5842 5836 5831 5825 5814 5804 5796 5789 5779 5769 5761 5753 5746 5735 5722 5709 5698 5686 5676 5665 5651 5642 5634 5624 5618 5613 5609 5605 5600 5597 5592 5589 5584 5584 5585 5585 5584
5879 5874 5869 5863 5854 5845 5838 5830 5824 5816 5806 5796 5787 5780 5770 5764 5751 5744 5738 5727 5712 5699 5687 5676 5666 5657 5643 5631 5625 5618 5613 5606 5603 5601 5602 5600 5596 5592 5586 5581 5581 5575 5575
5875 5870 5864 5856 5847 5839 5830 5821 5810 5802 5794 5785 5777 5771 5765 5753 5741 5734 5726 5719 5707 5697 5685 5672 5659 5645 5633 5623 5617 5614 5607 5603 5603 5603 5603 5602 5598 5592 5588 5582 5577 5573 5569
5867 5863 5852 5844 5836 5827 5817 5805 5797 5790 5784 5776 5769 5760 5750 5744 5732 5722 5717 5711 5701 5692 5679 5666 5649 5636 5626 5618 5615 5608 5606 5608 5607 5605 5601 5598 5594 5590 5585 5581 5574 5568 5563
5860 5848 5839 5832 5825 5814 5804 5795 5787 5783 5775 5766 5762 5752 5740 5734 5723 5712 5706 5698 5690 5682 5671 5655 5640 5629 5622 5617 5610 5606 5608 5608 5605 5604 5599 5595 5591 5588 5585 5582 5577 5574 5566
5844 5834 5826 5818 5809 5801 5796 5788 5781 5774 5766 5762 5752 5741 5735 5725 5716 5707 5698 5689 5680 5672 5657 5646 5635 5627 5619 5614 5613 5608 5606 5600 5598 5598 5597 5594 5591 5587 5584 5581 5579 5578 5573
5827 5819 5811 5802 5794 5784 5776 5774 5774 5772 5768 5761 5752 5744 5733 5720 5712 5706 5697 5688 5678 5665 5652 5642 5635 5629 5624 5617 5611 5605 5603 5601 5596 5594 5595 5593 5589 5586 5582 5579 5578 5576 5572
5815 5806 5800 5794 5786 5778 5773 5764 5754 5754 5753 5748 5744 5740 5726 5716 5704 5693 5683 5675 5665 5655 5651 5643 5634 5626 5620 5614 5608 5603 5597 5595 5592 5591 5591 5588 5586 5583 5580 5578 5575 5572 5568
5808 5797 5791 5789 5782 5777 5772 5768 5755 5739 5735 5729 5724 5720 5715 5705 5693 5682 5673 5664 5655 5651 5647 5637 5629 5622 5615 5610 5604 5601 5593 5588 5584 5585 5585 5583 5582 5580 5577 5574 5572 5569 5565
5797 5789 5788 5782 5777 5775 5774 5765 5757 5748 5738 5725 5709 5707 5698 5690 5682 5674 5664 5656 5651 5646 5640 5631 5624 5617 5611 5607 5603 5599 5592 5589 5586 5580 5578 5578 5576 5575 5572 5569 5567 5564 5561
5789 5784 5782 5776 5775 5772 5766 5759 5753 5743 5732 5718 5704 5691 5681 5675 5669 5663 5658 5660 5651 5642 5633 5625 5618 5612 5608 5602 5597 5590 5587 5582 5578 5577 5573 5571 5569 5569 5567 5563 5557 5553 5555
5781 5776 5777 5771 5764 5760 5755 5748 5742 5732 5719 5712 5706 5694 5678 5671 5668 5661 5656 5652 5645 5637 5628 5619 5612 5608 5604 5597 5590 5585 5581 5578 5573 5571 5568 5565 5563 5563 5561 5559 5557 5553 5550
5775 5767 5765 5762 5756 5751 5745 5739 5731 5724 5716 5709 5700 5689 5681 5678 5669 5659 5652 5645 5638 5630 5622 5615 5608 5601 5596 5591 5587 5582 5578 5574 5569 5564 5561 5559 5556 5556 5554 5552 5550 5548 5546
5769 5761 5757 5754 5748 5741 5736 5729 5723 5717 5711 5703 5692 5678 5668 5673 5664 5656 5647 5638 5629 5623 5616 5610 5604 5600 5594 5589 5584 5580 5575 5570 5563 5560 5557 5555 5552 5550 5550 5549 5547 5545 5543
5761 5755 5750 5744 5740 5729 5725 5721 5716 5711 5704 5696 5688 5677 5669 5665 5657 5650 5642 5633 5624 5616 5609 5604 5599 5595 5589 5582 5579 5576 5572 5566 5560 5555 5555 5553 5550 5547 5546 5546 5544 5542 5540
5753 5747 5742 5737 5729 5726 5720 5714 5710 5703 5698 5690 5682 5674 5667 5659 5651 5643 5636 5626 5618 5611 5605 5601 5597 5593 5586 5581 5574 5570 5566 5560 5557 5554 5551 5552 5548 5545 5544 5543 5541 5538 5535
5745 5740 5734 5727 5719 5716 5709 5706 5701 5697 5692 5685 5677 5670 5661 5654 5646 5636 5627 5619 5614 5607 5599 5595 5592 5586 5581 5577 5573 5568 5562 5557 5554 5552 5551 5550 5548 5544 5543 5541 5538 5536 5534
5735 5731 5726 5720 5714 5709 5702 5697 5694 5690 5685 5679 5673 5665 5656 5648 5640 5632 5624 5617 5612 5603 5595 5589 5586 5583 5577 5573 5567 5562 5558 5555 5551 5550 5549 5549 5547 5544 5541 5538 5535 5533 5530